Wetterdaten: aktuell Montag, 23.09.2019 02:52
Datum Zeit Temp. I. Temp. 2m Temp. 5cm Feuchte I. Feuchte 2m Luftdruck Regen Wind Richtung Richtung Taupunkt Windchill Windben
23.09.2019 02:52 16,9 C 9,8 C 10,7 C 63 % 87 % 1007,8 hPa 0,0 l/m 0,0 km/h (0 Bft) N-NO 22 7,7 C 9,8 C 0,0 km/h (0 Bft)
23.09.2019 02:50 17,0 C 9,9 C 10,8 C 63 % 86 % 1007,8 hPa 0,0 l/m 0,0 km/h (0 Bft) N 360 7,7 C 9,9 C 0,0 km/h (0 Bft)
23.09.2019 02:48 16,9 C 9,9 C 10,9 C 63 % 86 % 1007,8 hPa 0,0 l/m 0,0 km/h (0 Bft) N-NO 22 7,7 C 9,9 C 0,0 km/h (0 Bft)
23.09.2019 02:46 17,0 C 9,9 C 10,9 C 63 % 86 % 1007,8 hPa 0,0 l/m 0,0 km/h (0 Bft) N-NW 337 7,7 C 9,9 C 0,0 km/h (0 Bft)
23.09.2019 02:44 17,0 C 9,9 C 10,9 C 63 % 86 % 1007,8 hPa 0,0 l/m 0,0 km/h (0 Bft) N 360 7,7 C 9,9 C 0,0 km/h (0 Bft)
23.09.2019 02:42 17,0 C 9,9 C 11,0 C 63 % 86 % 1007,8 hPa 0,0 l/m 0,0 km/h (0 Bft) N-NO 22 7,7 C 9,9 C 0,0 km/h (0 Bft)
23.09.2019 02:40 17,0 C 9,9 C 11,1 C 63 % 86 % 1007,6 hPa 0,0 l/m 0,0 km/h (0 Bft) N-NO 22 7,7 C 9,9 C 0,0 km/h (0 Bft)
23.09.2019 02:38 17,0 C 9,9 C 11,1 C 63 % 86 % 1007,6 hPa 0,0 l/m 0,0 km/h (0 Bft) N 360 7,7 C 9,9 C 0,0 km/h (0 Bft)
23.09.2019 02:36 17,0 C 9,8 C 11,1 C 63 % 86 % 1007,6 hPa 0,0 l/m 0,0 km/h (0 Bft) N 360 7,6 C 9,8 C 0,0 km/h (0 Bft)
23.09.2019 02:34 17,0 C 9,7 C 11,1 C 63 % 86 % 1007,6 hPa 0,0 l/m 0,0 km/h (0 Bft) N 360 7,5 C 9,7 C 0,0 km/h (0 Bft)
23.09.2019 02:32 17,0 C 9,7 C 11,2 C 63 % 86 % 1007,6 hPa 0,0 l/m 0,0 km/h (0 Bft) N-NO 22 7,5 C 9,7 C 0,0 km/h (0 Bft)
23.09.2019 02:30 17,0 C 9,7 C 11,3 C 63 % 86 % 1007,6 hPa 0,0 l/m 0,0 km/h (0 Bft) S 180 7,5 C 9,7 C 0,0 km/h (0 Bft)
23.09.2019 02:28 17,0 C 9,7 C 11,3 C 63 % 86 % 1007,6 hPa 0,0 l/m 0,0 km/h (0 Bft) S 180 7,5 C 9,7 C 0,0 km/h (0 Bft)
23.09.2019 02:26 17,0 C 9,7 C 11,3 C 63 % 86 % 1007,6 hPa 0,0 l/m 0,0 km/h (0 Bft) S 180 7,5 C 9,7 C 0,0 km/h (0 Bft)
23.09.2019 02:24 17,0 C 9,8 C 11,4 C 63 % 86 % 1007,6 hPa 0,0 l/m 0,0 km/h (0 Bft) O-NO 67 7,6 C 9,8 C 0,0 km/h (0 Bft)
23.09.2019 02:22 17,0 C 9,8 C 11,4 C 63 % 86 % 1007,6 hPa 0,0 l/m 0,2 km/h (0 Bft) SO 135 7,6 C 9,8 C 0,0 km/h (0 Bft)
23.09.2019 02:20 17,0 C 9,9 C 11,4 C 63 % 86 % 1007,6 hPa 0,0 l/m 0,5 km/h (0 Bft) SO 135 7,7 C 9,9 C 0,0 km/h (0 Bft)
23.09.2019 02:18 17,0 C 9,9 C 11,5 C 63 % 86 % 1007,6 hPa 0,0 l/m 0,5 km/h (0 Bft) S-SO 157 7,7 C 9,9 C 0,0 km/h (0 Bft)
23.09.2019 02:16 17,0 C 9,9 C 11,5 C 63 % 86 % 1007,6 hPa 0,0 l/m 0,5 km/h (0 Bft) S-SO 157 7,7 C 9,9 C 0,0 km/h (0 Bft)
23.09.2019 02:14 17,0 C 10,0 C 11,5 C 64 % 86 % 1007,6 hPa 0,0 l/m 0,5 km/h (0 Bft) S-SO 157 7,8 C 10,0 C 0,0 km/h (0 Bft)
23.09.2019 02:12 17,0 C 10,1 C 11,5 C 63 % 85 % 1007,6 hPa 0,0 l/m 0,5 km/h (0 Bft) S-SO 157 7,7 C 10,1 C 2,7 km/h (1 Bft)
23.09.2019 02:10 17,0 C 10,3 C 11,5 C 64 % 86 % 1007,6 hPa 0,0 l/m 0,0 km/h (0 Bft) S-SO 157 8,1 C 10,3 C 2,4 km/h (1 Bft)
23.09.2019 02:08 17,0 C 10,4 C 11,5 C 64 % 86 % 1007,6 hPa 0,0 l/m 0,0 km/h (0 Bft) S 180 8,2 C 10,4 C 0,0 km/h (0 Bft)
23.09.2019 02:06 17,0 C 10,4 C 11,5 C 63 % 86 % 1007,6 hPa 0,0 l/m 0,0 km/h (0 Bft) O 90 8,2 C 10,4 C 0,0 km/h (0 Bft)
23.09.2019 02:04 17,0 C 10,4 C 11,4 C 64 % 86 % 1007,6 hPa 0,0 l/m 0,0 km/h (0 Bft) O-SO 112 8,2 C 10,4 C 0,0 km/h (0 Bft)
23.09.2019 02:02 17,0 C 10,3 C 11,3 C 63 % 85 % 1007,6 hPa 0,0 l/m 0,0 km/h (0 Bft) N-NO 22 7,9 C 10,3 C 0,0 km/h (0 Bft)
23.09.2019 02:00 17,0 C 10,2 C 11,3 C 64 % 85 % 1007,6 hPa 0,0 l/m 0,0 km/h (0 Bft) N-NO 22 7,8 C 10,2 C 0,0 km/h (0 Bft)
23.09.2019 01:58 17,0 C 10,3 C 11,3 C 64 % 85 % 1007,6 hPa 0,0 l/m 0,0 km/h (0 Bft) S-SO 157 7,9 C 10,3 C 0,0 km/h (0 Bft)
23.09.2019 01:56 17,0 C 10,3 C 11,3 C 64 % 85 % 1007,6 hPa 0,0 l/m 0,0 km/h (0 Bft) S-SO 157 7,9 C 10,3 C 0,0 km/h (0 Bft)
23.09.2019 01:54 17,0 C 10,3 C 11,3 C 64 % 85 % 1007,6 hPa 0,0 l/m 0,0 km/h (0 Bft) S-SO 157 7,9 C 10,3 C 0,0 km/h (0 Bft)
23.09.2019 01:52 17,0 C 10,4 C 11,4 C 64 % 85 % 1007,6 hPa 0,0 l/m 0,0 km/h (0 Bft) S-SO 157 8,0 C 10,4 C 0,0 km/h (0 Bft)
23.09.2019 01:50 17,1 C 10,4 C 11,4 C 64 % 85 % 1007,6 hPa 0,0 l/m 0,0 km/h (0 Bft) SO 135 8,0 C 10,4 C 0,0 km/h (0 Bft)
23.09.2019 01:48 17,1 C 10,4 C 11,5 C 64 % 85 % 1007,6 hPa 0,0 l/m 0,0 km/h (0 Bft) SO 135 8,0 C 10,4 C 0,0 km/h (0 Bft)
23.09.2019 01:46 17,0 C 10,5 C 11,5 C 64 % 85 % 1007,6 hPa 0,0 l/m 0,0 km/h (0 Bft) SO 135 8,1 C 10,5 C 0,0 km/h (0 Bft)
23.09.2019 01:44 17,0 C 10,5 C 11,6 C 64 % 85 % 1007,6 hPa 0,0 l/m 0,0 km/h (0 Bft) SO 135 8,1 C 10,5 C 0,0 km/h (0 Bft)
23.09.2019 01:42 17,0 C 10,6 C 11,6 C 64 % 85 % 1007,6 hPa 0,0 l/m 0,0 km/h (0 Bft) SO 135 8,2 C 10,6 C 0,0 km/h (0 Bft)
23.09.2019 01:40 17,1 C 10,6 C 11,7 C 64 % 85 % 1007,9 hPa 0,0 l/m 0,0 km/h (0 Bft) SO 135 8,2 C 10,6 C 0,0 km/h (0 Bft)
23.09.2019 01:38 17,1 C 10,7 C 11,7 C 64 % 85 % 1007,9 hPa 0,0 l/m 0,0 km/h (0 Bft) S-SO 157 8,3 C 10,7 C 0,0 km/h (0 Bft)
23.09.2019 01:36 17,1 C 10,7 C 11,6 C 64 % 85 % 1007,9 hPa 0,0 l/m 0,0 km/h (0 Bft) S-SO 157 8,3 C 10,7 C 0,0 km/h (0 Bft)
23.09.2019 01:34 17,1 C 10,7 C 11,6 C 64 % 85 % 1007,9 hPa 0,0 l/m 0,0 km/h (0 Bft) S-SO 157 8,3 C 10,7 C 0,0 km/h (0 Bft)
23.09.2019 01:32 17,1 C 10,8 C 11,6 C 64 % 85 % 1007,9 hPa 0,0 l/m 0,0 km/h (0 Bft) SW 225 8,4 C 10,8 C 0,0 km/h (0 Bft)
23.09.2019 01:30 17,1 C 10,8 C 11,6 C 64 % 85 % 1007,9 hPa 0,0 l/m 0,0 km/h (0 Bft) SW 225 8,4 C 10,8 C 0,0 km/h (0 Bft)
23.09.2019 01:28 17,1 C 10,9 C 11,7 C 64 % 84 % 1007,9 hPa 0,0 l/m 0,0 km/h (0 Bft) SW 225 8,3 C 10,9 C 0,0 km/h (0 Bft)
23.09.2019 01:26 17,1 C 10,9 C 11,8 C 64 % 84 % 1007,9 hPa 0,0 l/m 0,0 km/h (0 Bft) W-SW 247 8,3 C 10,9 C 0,0 km/h (0 Bft)
23.09.2019 01:24 17,0 C 11,0 C 11,9 C 64 % 84 % 1007,9 hPa 0,0 l/m 0,0 km/h (0 Bft) S 180 8,4 C 11,0 C 0,0 km/h (0 Bft)
23.09.2019 01:22 17,1 C 11,0 C 11,9 C 64 % 84 % 1007,9 hPa 0,0 l/m 0,0 km/h (0 Bft) S 180 8,4 C 11,0 C 0,0 km/h (0 Bft)
23.09.2019 01:20 17,1 C 11,0 C 12,0 C 64 % 84 % 1007,8 hPa 0,0 l/m 0,0 km/h (0 Bft) NO 45 8,4 C 11,0 C 0,0 km/h (0 Bft)
23.09.2019 01:18 17,1 C 11,0 C 12,1 C 64 % 84 % 1007,8 hPa 0,0 l/m 0,0 km/h (0 Bft) NW 315 8,4 C 11,0 C 0,0 km/h (0 Bft)
23.09.2019 01:16 17,1 C 11,0 C 12,2 C 64 % 84 % 1007,8 hPa 0,0 l/m 0,0 km/h (0 Bft) W-NW 292 8,4 C 11,0 C 0,0 km/h (0 Bft)
23.09.2019 01:14 17,1 C 11,0 C 12,1 C 64 % 84 % 1007,8 hPa 0,0 l/m 0,0 km/h (0 Bft) W 270 8,4 C 11,0 C 0,0 km/h (0 Bft)
23.09.2019 01:12 17,1 C 11,0 C 12,1 C 64 % 84 % 1007,8 hPa 0,0 l/m 0,0 km/h (0 Bft) N-NW 337 8,4 C 11,0 C 0,0 km/h (0 Bft)
23.09.2019 01:10 17,1 C 11,0 C 12,2 C 64 % 83 % 1007,8 hPa 0,0 l/m 0,7 km/h (0 Bft) NW 315 8,2 C 11,0 C 0,0 km/h (0 Bft)
23.09.2019 01:08 17,1 C 11,0 C 12,2 C 64 % 83 % 1007,8 hPa 0,0 l/m 1,2 km/h (1 Bft) W 270 8,2 C 11,0 C 0,0 km/h (0 Bft)
23.09.2019 01:06 17,1 C 11,2 C 12,2 C 64 % 83 % 1007,8 hPa 0,0 l/m 1,2 km/h (1 Bft) N-NW 337 8,4 C 11,2 C 0,0 km/h (0 Bft)
23.09.2019 01:04 17,1 C 11,2 C 12,1 C 64 % 83 % 1007,8 hPa 0,0 l/m 1,2 km/h (1 Bft) N 360 8,4 C 11,2 C 0,0 km/h (0 Bft)
23.09.2019 01:02 17,1 C 11,0 C 12,0 C 64 % 83 % 1007,8 hPa 0,0 l/m 1,2 km/h (1 Bft) N 360 8,2 C 11,0 C 0,0 km/h (0 Bft)
23.09.2019 01:00 17,1 C 11,0 C 12,0 C 64 % 83 % 1007,8 hPa 0,0 l/m 1,0 km/h (0 Bft) N-NW 337 8,2 C 11,0 C 3,6 km/h (1 Bft)
23.09.2019 00:58 17,2 C 11,0 C 12,0 C 64 % 83 % 1007,8 hPa 0,0 l/m 0,5 km/h (0 Bft) N 360 8,2 C 11,0 C 3,6 km/h (1 Bft)
23.09.2019 00:56 17,1 C 11,0 C 12,0 C 64 % 83 % 1007,8 hPa 0,0 l/m 0,0 km/h (0 Bft) N-NW 337 8,2 C 11,0 C 0,0 km/h (0 Bft)
23.09.2019 00:54 17,2 C 11,0 C 11,9 C 64 % 83 % 1007,8 hPa 0,0 l/m 0,0 km/h (0 Bft) N-NO 22 8,2 C 11,0 C 0,0 km/h (0 Bft)
23.09.2019 00:52 17,1 C 11,0 C 11,9 C 64 % 83 % 1007,8 hPa 0,0 l/m 0,0 km/h (0 Bft) NW 315 8,2 C 11,0 C 0,0 km/h (0 Bft)
23.09.2019 00:50 17,1 C 11,0 C 11,9 C 64 % 83 % 1007,8 hPa 0,0 l/m 0,0 km/h (0 Bft) W-SW 247 8,2 C 11,0 C 0,0 km/h (0 Bft)
23.09.2019 00:48 17,2 C 11,0 C 11,9 C 64 % 82 % 1007,8 hPa 0,0 l/m 0,0 km/h (0 Bft) SW 225 8,0 C 11,0 C 0,0 km/h (0 Bft)
23.09.2019 00:46 17,2 C 11,2 C 11,9 C 64 % 82 % 1007,8 hPa 0,0 l/m 0,0 km/h (0 Bft) SW 225 8,2 C 11,2 C 0,0 km/h (0 Bft)
23.09.2019 00:44 17,2 C 11,2 C 11,8 C 64 % 82 % 1007,8 hPa 0,0 l/m 0,0 km/h (0 Bft) SW 225 8,2 C 11,2 C 0,0 km/h (0 Bft)
23.09.2019 00:42 17,2 C 11,2 C 11,8 C 64 % 82 % 1007,8 hPa 0,0 l/m 0,0 km/h (0 Bft) S 180 8,2 C 11,2 C 0,0 km/h (0 Bft)
23.09.2019 00:40 17,2 C 11,2 C 11,8 C 64 % 82 % 1007,9 hPa 0,0 l/m 0,0 km/h (0 Bft) S 180 8,2 C 11,2 C 0,0 km/h (0 Bft)
23.09.2019 00:38 17,2 C 11,3 C 11,8 C 64 % 82 % 1007,9 hPa 0,0 l/m 0,0 km/h (0 Bft) SW 225 8,3 C 11,3 C 0,0 km/h (0 Bft)
23.09.2019 00:36 17,2 C 11,3 C 11,8 C 64 % 82 % 1007,9 hPa 0,0 l/m 0,0 km/h (0 Bft) N-NW 337 8,3 C 11,3 C 0,0 km/h (0 Bft)
23.09.2019 00:34 17,2 C 11,4 C 11,8 C 64 % 82 % 1007,9 hPa 0,0 l/m 0,0 km/h (0 Bft) N-NO 22 8,4 C 11,4 C 0,0 km/h (0 Bft)
23.09.2019 00:32 17,2 C 11,3 C 11,7 C 64 % 82 % 1007,9 hPa 0,0 l/m 0,0 km/h (0 Bft) N-NO 22 8,3 C 11,3 C 0,0 km/h (0 Bft)
23.09.2019 00:30 17,2 C 11,3 C 11,7 C 64 % 81 % 1007,9 hPa 0,0 l/m 0,0 km/h (0 Bft) N-NO 22 8,2 C 11,3 C 0,0 km/h (0 Bft)
23.09.2019 00:28 17,2 C 11,3 C 11,7 C 64 % 81 % 1007,9 hPa 0,0 l/m 0,0 km/h (0 Bft) N-NO 22 8,2 C 11,3 C 0,0 km/h (0 Bft)
23.09.2019 00:26 17,2 C 11,4 C 11,8 C 64 % 81 % 1007,9 hPa 0,0 l/m 0,0 km/h (0 Bft) N-NO 22 8,3 C 11,4 C 0,0 km/h (0 Bft)
23.09.2019 00:24 17,2 C 11,4 C 11,8 C 64 % 81 % 1007,9 hPa 0,0 l/m 0,0 km/h (0 Bft) N-NO 22 8,3 C 11,4 C 0,0 km/h (0 Bft)
23.09.2019 00:22 17,2 C 11,4 C 11,9 C 64 % 81 % 1007,9 hPa 0,0 l/m 0,0 km/h (0 Bft) NO 45 8,3 C 11,4 C 0,0 km/h (0 Bft)
23.09.2019 00:20 17,2 C 11,4 C 11,9 C 64 % 81 % 1008,0 hPa 0,0 l/m 0,0 km/h (0 Bft) W 270 8,3 C 11,4 C 0,0 km/h (0 Bft)
23.09.2019 00:18 17,2 C 11,4 C 11,9 C 64 % 81 % 1008,0 hPa 0,0 l/m 0,0 km/h (0 Bft) W-SW 247 8,3 C 11,4 C 0,0 km/h (0 Bft)
23.09.2019 00:16 17,2 C 11,5 C 11,9 C 64 % 81 % 1008,0 hPa 0,0 l/m 0,0 km/h (0 Bft) W-SW 247 8,4 C 11,5 C 0,0 km/h (0 Bft)
23.09.2019 00:14 17,2 C 11,5 C 11,8 C 64 % 80 % 1008,0 hPa 0,0 l/m 0,0 km/h (0 Bft) N-NO 22 8,2 C 11,5 C 0,0 km/h (0 Bft)
23.09.2019 00:12 17,2 C 11,8 C 12,2 C 64 % 80 % 1008,0 hPa 0,0 l/m 0,5 km/h (0 Bft) SW 225 8,5 C 11,8 C 0,0 km/h (0 Bft)
23.09.2019 00:10 17,2 C 11,8 C 12,2 C 64 % 80 % 1008,0 hPa 0,0 l/m 0,5 km/h (0 Bft) SW 225 8,5 C 11,8 C 0,0 km/h (0 Bft)
23.09.2019 00:08 17,2 C 11,8 C 12,2 C 64 % 80 % 1008,0 hPa 0,0 l/m 0,5 km/h (0 Bft) SW 225 8,5 C 11,8 C 0,0 km/h (0 Bft)
23.09.2019 00:06 17,2 C 11,8 C 12,2 C 64 % 80 % 1008,0 hPa 0,0 l/m 0,5 km/h (0 Bft) SW 225 8,5 C 11,8 C 0,0 km/h (0 Bft)
23.09.2019 00:04 17,2 C 11,8 C 12,2 C 64 % 80 % 1008,0 hPa 0,0 l/m 0,5 km/h (0 Bft) SW 225 8,5 C 11,8 C 0,0 km/h (0 Bft)
23.09.2019 00:02 17,2 C 11,8 C 12,2 C 64 % 80 % 1008,0 hPa 0,0 l/m 0,5 km/h (0 Bft) SW 225 8,5 C 11,8 C 0,0 km/h (0 Bft)
23.09.2019 00:00 17,2 C 11,9 C 12,4 C 64 % 80 % 1007,9 hPa 0,0 l/m 1,4 km/h (1 Bft) W-SW 247 8,6 C 11,9 C 0,0 km/h (0 Bft)
_ Min-Zeit 02:48 02:26 02:52 02:02 00:00 01:42 - 00:14 - - 02:26 02:26 00:00
Minimum _ 16,9 C 9,7 C 10,7 C 63 % 80 % 1007,6 hPa - 0,0 km/h (0 Bft) - - 7,5 C 9,7 C 0,0 km/h (0 Bft)
_ Max-Zeit 00:00 00:00 00:00 00:00 02:52 00:02 00:00 00:00 - - 00:00 00:00 00:58
Maximum _ 17,2 C 11,9 C 12,4 C 64 % 87 % 1008,0 hPa 0,0 l/m 1,4 km/h
W-SW (1 Bft)
- - 8,6 C 11,9 C 3,6 km/h
N (1 Bft)
Durchschnitt _ 17,1 C 10,7 C 11,7 C 64 % 84 % 1007,8 hPa #0,0 l/m 0,2 km/h (0 Bft) N - 8,1 C 10,7 C 0,1 km/h (0 Bft)